Location: Faicchio
(41.2833°N, 14.4833°E)
Time: 05:51:18
(UTC+00:00)

Cosmos 1833 Rocket - Pass Details

Date: 15 June 2025
Orbit: 832 x 837 km, 71.0° (Epoch: 16 July)

Event Time Altitude Azimuth Distance (km) Brightness Sun altitude
Rises 01:17:34 0° 324° (NW) 3,389 6.1 -18.2°
Reaches altitude 10° 01:20:23 10° 312° (NW) 2,449 5.2 -17.9°
Maximum altitude 01:24:54 26° 258° (WSW) 1,604 3.8 -17.5°
Enters shadow 01:25:44 25° 244° (WSW) 1,639 3.7 -17.4°
